Tracking 30995 objects as of 6-Jul-2025
HD Live streaming from Space Station
objects crossing your sky now

COSMOS 574

Track COSMOS 574 now!
10-day predictions
COSMOS 574 is classified as:


NORAD ID: 6707
Int'l Code: 1973-042A
Perigee: 981.7 km
Apogee: 1,014.6 km
Inclination: 82.9 °
Period: 104.9 minutes
Semi major axis: 7369 km
RCS: 1.6655 m2 (large)
Launch date: June 20, 1973
Source: Commonwealth of Independent States (former USSR) (CIS)
Launch site: PLESETSK MISSILE AND SPACE COMPLEX (PKMTR)
Your satellite tracking list
Your tracking list is empty




NASA's NSSDC Master Catalog

Two Line Element Set (TLE):
1 06707U 73042A   25186.51541288  .00000023  00000-0  86746-5 0  9993
2 06707  82.9496  89.1637 0022335 128.4472 296.9944 13.72382474 43121
Source of the keplerian elements: AFSPC